Regional Weather Roundup
Issued by NWS Sterling, VA

Home | Current Version | Previous Version | Graphics & Text | Print | Product List | Glossary On
Versions: 1 2 3 4 5 6 7 8 9 10 11 12 13 14 15 16 17 18 19 20 21 22 23 24 25 26 27 28 29 30 31 32 33 34 35 36 37 38 39 40 41 42 43 44 45 46 47 48 49 50
000
ASUS41 KLWX 261111
RWRLWX

REGIONAL WEATHER ROUNDUP
NATIONAL WEATHER SERVICE BALTIMORE MD/WASHINGTON DC
700 AM EDT THU APR 26 2018

Note: "FAIR" indicates few or no clouds below 12,000 feet
with no significant weather and/or obstructions to visibility.
 TC=TEMPERATURE CELSIUS

 * =Non NWS site. Station does not report precipitation (e.g. rain,
    snow, etc.), thunder, or fog.

DCZ001-MDZ009-015-VAZ040>042-051-053>054-261200-
WASHINGTON METRO

CITY           SKY/WX    TMP DP  RH WIND       PRES   REMARKS
WASHINGTON NAT FAIR      51  37  58 W8        29.83R
DULLES         MOCLDY    47  38  71 CALM      29.85R
ANDREWS AFB    FAIR      49  38  66 W9        29.82R
FT BELVOIR     FAIR      49  38  65 W9        29.84R
QUANTICO       MOCLDY    51  41  68 NW6       29.86R
COLLEGE PARK*  FAIR      49  37  62 W7        29.82R
LEESBURG*      FAIR      46  41  81 W14       29.85R
MANASSAS*      FAIR      48  38  68 NW8       29.85R
GAITHERSBURG*  FAIR      46  37  71 W7        29.84R

$$

MDZ006>007-011-014-261200-
BALTIMORE METRO

CITY           SKY/WX    TMP DP  RH WIND       PRES   REMARKS
BWI AIRPORT    FAIR      48  39  71 W13       29.81R
MD SCIENCE CTR   N/A     51  38  60 MISG      29.81R
MARTIN STATE   PTCLDY    48  43  81 W9        29.82R
ANNAPOLIS      FAIR      52  38  58 W7        29.81R
FORT MEADE*    FAIR      46  37  71 NW10G20   29.83R

$$

MDZ012-015-019>023-261200-
MARYLAND EASTERN SHORE

CITY           SKY/WX    TMP DP  RH WIND       PRES   REMARKS
OCEAN CITY     FAIR      54  49  83 NW9       29.78R
SALISBURY      FAIR      52  42  69 NW13      29.80R
BAY BRIDGE AP* FAIR      50  39  66 NW8       29.82R
CAMBRIDGE*     CLEAR     52  41  66 NW12      29.81R
EASTON*        MOCLDY    52  39  62 NW10G16   29.85R

$$

MDZ017>025-261200-
SOUTHERN MARYLAND

CITY           SKY/WX    TMP DP  RH WIND       PRES   REMARKS
PATUXENT RIVER MOCLDY    51  41  68 NW14      29.82R
ST INIGOES     FAIR      51  43  74 W6        29.83R
LEONARDTOWN*   FAIR      50  41  71 W7        29.85R

$$

MDZ003>005-261200-
NORTH CENTRAL MARYLAND

CITY           SKY/WX    TMP DP  RH WIND       PRES   REMARKS
FREDERICK*     FAIR      48  34  57 W6        29.86R
HAGERSTOWN APT FAIR      46  37  71 NW8       29.84R
WESTMINSTER*   FAIR      46  39  76 NW8       29.82R

$$

MDZ501>502-261200-
WESTERN MARYLAND

CITY           SKY/WX    TMP DP  RH WIND       PRES   REMARKS
OAKLAND*       CLOUDY    34  34 100 NW8       29.85R VSB<1/4 WCI  27
CUMBERLAND*    FAIR      46  36  66 N7        29.92R

$$

VAZ025>031-261200-
SHENANDOAH VALLEY

CITY           SKY/WX    TMP DP  RH WIND       PRES   REMARKS
WINCHESTER*    FAIR      45  36  70 W10       29.87R
FRONT ROYAL*   FAIR      48  36  61 SW5       29.86R
LURAY*         FAIR      45  37  76 SE3       29.88R
NEW MARKET*    FAIR      41  39  93 SW5       29.88R
STAUNTON*      FAIR      41  37  85 CALM      29.91R
WAYNESBORO*    FAIR      43  37  79 CALM      29.90R

$$

WVZ021-048>050-054>055-261200-
EASTERN WEST VIRGINIA PANHANDLE

CITY           SKY/WX    TMP DP  RH WIND       PRES   REMARKS
MARTINSBURG    FAIR      47  36  65 CALM      29.84R
PETERSBURG*    FAIR      42  37  83 CALM      29.89R HAZE

$$

VAZ036>039-050-261200-
CENTRAL FOOTHILLS

CITY           SKY/WX    TMP DP  RH WIND       PRES   REMARKS
CHARLOTTESVILL FAIR      52  37  56 NW5       29.87R
CULPEPER*      FAIR      52  36  55 NW6       29.87R
ORANGE*        FAIR      50  36  57 CALM      29.86R
GORDONSVILLE*  FAIR      53  37  55 NW5       29.86R
WARRENTON*     FAIR      46  36  67 SE6       29.85R

$$

VAZ055>057-261200-
NORTH AND CENTRAL PIEDMONT

CITY           SKY/WX    TMP DP  RH WIND       PRES   REMARKS
FREDERICKSBRG* FAIR      48  43  81 W3        29.86R
STAFFORD*      FAIR      47  40  76 NW7       29.89R

$$

NCZ024-NYZ072-PAZ021-071-VAZ022-071-261200-
OTHER REGIONAL OBSERVATIONS

CITY           SKY/WX    TMP DP  RH WIND       PRES   REMARKS
NEW YORK CITY  MOCLDY    56  50  80 VRB3      29.69R
PHILADELPHIA   FAIR      51  38  60 NW12G23   29.77R
PITTSBURGH     FAIR      38  33  82 NW5       29.92R WCI  34
ROANOKE        FAIR      48  39  71 NW7       29.92R
RICHMOND       MOCLDY    55  50  83 N7        29.85R
RALEIGH        MOCLDY    51  51 100 CALM      29.88R

$$

ANZ530>537-261200-
MARINE OBSERVATIONS

STATION/POSITION TIME  TEMP    WIND        PRES
                       AIR SEA DIR/SP/G
                 (UTC) (F)     (DEG/KT/KT) (MB)
THOMAS PT LIGHT  1100   51 54  310/ 13/ 16 1010.6R
BALT KEY BRIDGE  1042   51     290/ 12/ 14 1009.2R
COVE POINT       1042   52     320/  9/ 13 1010.2R
LEWISETTA        1042   55 56  350/  7/  9 1009.9R
SOLOMONS ISLAND  1042   53 53  300/  8/ 12 1009.7R
PINEY POINT      1042          340/ 20/ 23   N/A

$$




USA.gov is the U.S. government's official web portal to all federal, state and local government web resources and services.